Weather History for Sidney-Richland, MT

Change the Weather History Date:

Monday, March 11, 2013

  Actual Average Record
Temperature  
Mean Temperature 26 °F -  
Max Temperature 33 °F 42 °F 75 °F (1990)
Min Temperature 19 °F 20 °F -31 °F (1998)
Degree Days  
Heating Degree Days 39    
Moisture  
Dew Point 21 °F    
Average Humidity 75    
Maximum Humidity 87    
Minimum Humidity 60    
Precipitation  
Precipitation 0.00 in - - ()
Sea Level Pressure  
Sea Level Pressure 29.98 in    
Wind  
Wind Speed 16 mph (WNW)    
Max Wind Speed 29 mph    
Max Gust Speed 38 mph    
Visibility 10 miles    
Events      
Averages and records for this station are not official NWS values.
T = Trace of Precipitation, MM = Missing Value Source: NWS Daily Summary

Daily Weather History Graph

Daily Weather History Graph

Search for Another Location

Airport:

Trip Planner

Search our weather history database for the weather conditions in past years. The results will help you decide how hot, cold, wet, or windy it might be!

Date:

Astronomy

Mar. 11, 2013 Rise Set
Actual Time 7:17 AM MDT 6:56 PM MDT
Civil Twilight 6:46 AM MDT 7:27 PM MDT
Nautical Twilight 6:10 AM MDT 8:03 PM MDT
Astronomical Twilight 5:34 AM MDT 8:40 PM MDT
Moon 6:50 AM MDT (3/11) 7:16 PM MDT (3/11)
Length of Visible Light 12h 41m
Length of Day
11h 39m
Waning Crescent, 0% of the Moon is Illuminated
Mar 11
Waning Crescent
Mar 11
New
Mar 19
First Quarter
Mar 27
Full
Apr 2
Last Quarter

Hourly Weather History & Observations

Time (MDT) Temp. Windchill Dew Point Humidity Pressure Visibility Wind Dir Wind Speed Gust Speed Precip Events Conditions
12:15 AM 30.2 °F 21.9 °F 24.8 °F 80% 29.90 in 10.0 mi SSW 9.2 mph - N/A   Overcast
12:35 AM 30.2 °F 22.6 °F 24.8 °F 80% 29.88 in 10.0 mi South 8.1 mph - N/A   Overcast
12:55 AM 30.2 °F 24.3 °F 26.6 °F 86% 29.87 in 10.0 mi SSW 5.8 mph - N/A   Overcast
1:15 AM 30.2 °F 24.3 °F 26.6 °F 86% 29.86 in 10.0 mi SSW 5.8 mph - N/A   Overcast
1:35 AM 30.2 °F 21.3 °F 24.8 °F 80% 29.85 in 10.0 mi SSW 10.4 mph - N/A   Scattered Clouds
1:55 AM 30.2 °F 20.8 °F 24.8 °F 80% 29.84 in 10.0 mi SSW 11.5 mph - N/A   Clear
2:35 AM 30.2 °F 24.3 °F 24.8 °F 80% 29.84 in 10.0 mi SSW 5.8 mph - N/A   Clear
3:15 AM 28.4 °F 24.6 °F 24.8 °F 86% 29.83 in 10.0 mi SSE 3.5 mph - N/A   Clear
3:35 AM 33.8 °F 24.3 °F 30.2 °F 87% 29.82 in 10.0 mi West 13.8 mph - N/A   Clear
3:55 AM 33.8 °F 22.8 °F 26.6 °F 75% 29.81 in 10.0 mi WNW 18.4 mph - N/A   Clear
4:15 AM 33.8 °F 22.5 °F 26.6 °F 75% 29.82 in 10.0 mi WNW 19.6 mph - N/A   Clear
4:35 AM 32.0 °F 19.5 °F 26.6 °F 80% 29.82 in 10.0 mi WNW 21.9 mph - N/A   Clear
4:55 AM 30.2 °F 17.8 °F 24.8 °F 80% 29.82 in 10.0 mi WNW 19.6 mph - N/A   Clear
5:15 AM 30.2 °F 18.9 °F 24.8 °F 80% 29.83 in 10.0 mi WNW 16.1 mph - N/A   Clear
5:35 AM 30.2 °F 18.1 °F 24.8 °F 80% 29.86 in 10.0 mi WNW 18.4 mph - N/A   Clear
5:55 AM 30.2 °F 17.4 °F 24.8 °F 80% 29.87 in 10.0 mi NW 20.7 mph 27.6 mph N/A   Clear
6:15 AM 28.4 °F 16.2 °F 24.8 °F 86% 29.87 in 10.0 mi NW 17.3 mph 24.2 mph N/A   Clear
6:35 AM 28.4 °F 16.2 °F 23.0 °F 80% 29.89 in 10.0 mi NW 17.3 mph 23.0 mph N/A   Clear
6:55 AM 28.4 °F 15.8 °F 21.2 °F 74% 29.89 in 10.0 mi NW 18.4 mph 25.3 mph N/A   Clear
7:15 AM 28.4 °F 16.6 °F 21.2 °F 74% 29.91 in 10.0 mi NW 16.1 mph 21.9 mph N/A   Clear
7:35 AM 28.4 °F 17.5 °F 21.2 °F 74% 29.92 in 10.0 mi NW 13.8 mph - N/A   Clear
7:55 AM 26.6 °F 15.7 °F 21.2 °F 80% 29.93 in 10.0 mi WNW 12.7 mph - N/A   Clear
8:15 AM 28.4 °F 16.6 °F 21.2 °F 74% 29.95 in 10.0 mi WNW 16.1 mph - N/A   Clear
8:35 AM 28.4 °F 16.2 °F 21.2 °F 74% 29.95 in 10.0 mi WNW 17.3 mph - N/A   Clear
8:55 AM 28.4 °F 16.2 °F 21.2 °F 74% 29.96 in 10.0 mi NW 17.3 mph - N/A   Clear
9:15 AM 28.4 °F 14.7 °F 23.0 °F 80% 29.96 in 10.0 mi WNW 21.9 mph 27.6 mph N/A   Clear
9:35 AM 28.4 °F 15.8 °F 23.0 °F 80% 29.97 in 10.0 mi WNW 18.4 mph 21.9 mph N/A   Clear
9:55 AM 28.4 °F 17.0 °F 23.0 °F 80% 29.97 in 10.0 mi WNW 15.0 mph - N/A   Clear
10:15 AM 30.2 °F 18.1 °F 23.0 °F 75% 29.97 in 10.0 mi WNW 18.4 mph 24.2 mph N/A   Clear
10:35 AM 30.2 °F 17.8 °F 23.0 °F 75% 29.97 in 10.0 mi WNW 19.6 mph 24.2 mph N/A   Clear
10:55 AM 30.2 °F 17.8 °F 24.8 °F 80% 29.98 in 10.0 mi WNW 19.6 mph 24.2 mph N/A   Clear
11:15 AM 32.0 °F 20.5 °F 24.8 °F 75% 29.98 in 10.0 mi WNW 18.4 mph 25.3 mph N/A   Clear
11:35 AM 32.0 °F 20.1 °F 23.0 °F 69% 29.99 in 10.0 mi WNW 19.6 mph 23.0 mph N/A   Clear
11:55 AM 32.0 °F 20.5 °F 23.0 °F 69% 30.00 in 10.0 mi WNW 18.4 mph 23.0 mph N/A   Clear
12:15 PM 32.0 °F 21.2 °F 23.0 °F 69% 30.00 in 10.0 mi WNW 16.1 mph 23.0 mph N/A   Clear
12:35 PM 33.8 °F 23.5 °F 24.8 °F 70% 30.00 in 10.0 mi NW 16.1 mph 25.3 mph N/A   Clear
12:55 PM 33.8 °F 21.9 °F 23.0 °F 65% 29.99 in 10.0 mi WNW 21.9 mph - N/A   Clear
1:15 PM 33.8 °F 22.2 °F 24.8 °F 70% 29.98 in 10.0 mi WNW 20.7 mph 25.3 mph N/A   Clear
1:35 PM 33.8 °F 22.2 °F 23.0 °F 65% 29.98 in 10.0 mi WNW 20.7 mph - N/A   Clear
1:55 PM 33.8 °F 23.2 °F 24.8 °F 70% 29.98 in 10.0 mi WNW 17.3 mph 24.2 mph N/A   Clear
2:35 PM 33.8 °F 21.6 °F 23.0 °F 65% 29.99 in 10.0 mi WNW 23.0 mph 31.1 mph N/A   Clear
2:55 PM 33.8 °F 20.8 °F 21.2 °F 60% 29.98 in 10.0 mi WNW 26.5 mph 32.2 mph N/A   Clear
3:15 PM 33.8 °F 21.9 °F 23.0 °F 65% 29.99 in 10.0 mi WNW 21.9 mph 28.8 mph N/A   Clear
4:15 PM 32.0 °F 19.2 °F 23.0 °F 69% 30.01 in 10.0 mi NW 23.0 mph 29.9 mph N/A   Overcast
4:35 PM 30.2 °F 17.1 °F 21.2 °F 69% 30.02 in 10.0 mi NW 21.9 mph 35.7 mph N/A   Overcast
5:15 PM 30.2 °F 17.1 °F 21.2 °F 69% 30.03 in 10.0 mi WNW 21.9 mph 31.1 mph N/A   Mostly Cloudy
5:35 PM 28.4 °F 13.0 °F 21.2 °F 74% 30.03 in 10.0 mi NW 28.8 mph 38.0 mph N/A   Mostly Cloudy
5:55 PM 28.4 °F 15.4 °F 19.4 °F 69% 30.04 in 10.0 mi WNW 19.6 mph 28.8 mph N/A   Overcast
6:15 PM 26.6 °F 10.8 °F 19.4 °F 74% 30.05 in 10.0 mi NW 27.6 mph 34.5 mph N/A   Overcast
6:35 PM 26.6 °F 10.6 °F 17.6 °F 69% 30.06 in 10.0 mi NW 28.8 mph 34.5 mph N/A   Overcast
6:55 PM 24.8 °F 9.6 °F 17.6 °F 74% 30.08 in 10.0 mi NW 23.0 mph 32.2 mph N/A   Overcast
7:15 PM 24.8 °F 9.0 °F 17.6 °F 74% 30.09 in 10.0 mi NW 25.3 mph 32.2 mph N/A   Overcast
7:35 PM 24.8 °F 8.7 °F 17.6 °F 74% 30.09 in 10.0 mi NW 26.5 mph 36.8 mph N/A   Overcast
7:55 PM 23.0 °F 6.6 °F 15.8 °F 74% 30.10 in 10.0 mi NW 25.3 mph 34.5 mph N/A   Overcast
8:15 PM 23.0 °F 7.2 °F 15.8 °F 74% 30.11 in 10.0 mi NW 23.0 mph 31.1 mph N/A   Overcast
8:35 PM 21.2 °F 4.9 °F 14.0 °F 74% 30.12 in 10.0 mi NW 23.0 mph 28.8 mph N/A   Overcast
8:55 PM 21.2 °F 7.3 °F 14.0 °F 74% 30.14 in 10.0 mi NW 16.1 mph 33.4 mph N/A   Overcast
9:15 PM 21.2 °F 6.0 °F 12.2 °F 68% 30.14 in 10.0 mi NW 19.6 mph 32.2 mph N/A   Overcast
9:35 PM 21.2 °F 4.5 °F 14.0 °F 74% 30.15 in 10.0 mi NW 24.2 mph 28.8 mph N/A   Overcast
9:55 PM 19.4 °F 2.5 °F 14.0 °F 80% 30.15 in 10.0 mi NW 23.0 mph 26.5 mph N/A   Overcast
10:15 PM 19.4 °F 1.8 °F 12.2 °F 74% 30.15 in 10.0 mi NW 25.3 mph 32.2 mph N/A   Scattered Clouds
10:35 PM 19.4 °F 2.5 °F 14.0 °F 80% 30.16 in 10.0 mi NW 23.0 mph 31.1 mph N/A   Clear
10:55 PM 19.4 °F 3.6 °F 12.2 °F 74% 30.17 in 10.0 mi NW 19.6 mph - N/A   Scattered Clouds
11:15 PM 19.4 °F 4.1 °F 14.0 °F 80% 30.18 in 10.0 mi NW 18.4 mph 23.0 mph N/A   Mostly Cloudy
11:35 PM 19.4 °F 2.8 °F 12.2 °F 74% 30.18 in 10.0 mi NW 21.9 mph 28.8 mph N/A   Scattered Clouds
11:55 PM 19.4 °F 4.1 °F 12.2 °F 74% 30.21 in 10.0 mi WNW 18.4 mph 27.6 mph N/A   Scattered Clouds